Location: Tauranga
(37.6860°S, 176.1670°E)
Time: 01:33:50
(UTC+13:00)

Resurs 01 Rocket - Pass Details

Date: 24 January 2019
Orbit: 635 x 644 km, 98.0° (Epoch: 17 October)

Event Time Altitude Azimuth Distance (km) Brightness Sun altitude
Rises 21:36:55 0° 155° (SSE) 2,972 5.2 -11.5°
Reaches altitude 10° 21:39:24 10° 143° (SE) 2,053 4.2 -11.9°
Maximum altitude 21:43:16 28° 84° (E) 1,203 2.6 -12.5°
Enters shadow 21:45:35 18° 38° (NE) 1,555 3.0 -12.9°
